COSMOS 1823 DEB

Satellite information

Favourite Embed

Satellite Type and Status

DEBRISIN ORBIT

Key statistics

Satellite COSMOS 1823 DEB at a glance.

Uptime

14080

Days in orbit

Revolutions

≈ 12.5

Per day

Orbit

LEO

Low Earth Orbit

Inclination

73.4

Latest

Satellite identification and parameters

Extended collection of information and parameters for COSMOS 1823 DEB.

Object identification

Identified? True

Debris? True

Object name: COSMOS 1823 DEB

International designator: 1987-020AE

Object number (NORAD): 18753

Object ID (CCSDS): 18753

Country: COMMONWEALTH OF INDEPENDENT STATES (CIS)

Current information (Y/N): Y

RCS size: MEDIUM

Orbital parameters

Period: 115.592 minutes

Inclination: 73.4466 deg

SMA: 7860.417 km

Apoapsis: 1503.326 km

Periapsis: 1461.239 km

RAAN: 142.8436 deg

Eccentricy: 0.00267714

Argument of periapsis: 72.4321 deg

Mean anomaly: 307.3942 deg

Mean motion: 12.4575992 rev/day

Mean motion (dot): 0.00000131 rev/day2

B* drag term: 0.0010333521 1/REarth

Two-line elements (TLE)

Creation date: Sept. 8, 2025, 3:16 a.m.

Reference frame: TEME

Reference center: EARTH

Epoch: Sept. 7, 2025, 10:58 p.m. UTC

TLE line 0: 0 COSMOS 1823 DEB

TLE line 1: 1 18753U 87020AE 25250.95750244 .00000131 00000-0 10334-2 0 9999

TLE line 2: 2 18753 73.4466 142.8436 0026771 72.4321 307.3942 12.45759920713807

Live tracking on map

Real-time ground track for satellite COSMOS 1823 DEB.

In-orbit conjunctions

A list of the most updated potential collisions computed for object COSMOS 1823 DEB.

Target Orbit TCA Probability of collision Miss distance Type
DELTA 1 R/B(1) LEO 2024-12-21 10:01:48 0.0005836549 839.0 (m) ROCKET BODY

Associated space launch

A satellite for the GEO-IK geodetic system

COSMOS 1823 DEB was lifted into orbit during the mission ‘Tsiklon-3 | Geo-IK 9’, on board a Tsiklon-3 space rocket.

The launch took place on Feb. 20, 1987, 4:43 a.m. from 32/2.

For more information about the launch, click the button.

Launch to space Tsiklon-3 | Geo-IK 9
Tsiklon-3 | Geo-IK 9

Agency: N/A

Status: Launch Successful

Launch date: Feb. 20, 1987, 4:43 a.m. UTC

Rocket: Tsiklon-3

Launch pad: 32/2

Location: Plesetsk Cosmodrome, Russian Federation

...

Latest news about this satellite

There are no fresh news available about this satellite. Check back as we update our databases every day.


Newsletter sign-up

Weekly statistics, charts and insights to help you stay on top of the space industry.